Date String (YYYY-MM-DD hh:mm:ss) UTC,Instrument flags,Ambient pressure (hPa),Sample flow (lpm),Bypass flow (lpm),Sample temperature (°C),Ambient temperature (°C),ASC tube jacket temperature (°C),LED temperature (°C),Box temperature (°C),Sample RH (%),Span deviation,Mass concentration (μg/m³),Mass concentration (μg/m³),Mass concentration (μg/m³)
DateTimeUTC,F1_M11,P_M11,Q1_M11,Q2_M11,T1_M11,T2_M11,T3_M11,T4_M11,T5_M11,U1_M11,ZSPAN_M11,X0_M11,X2_M11,X1_M11
2021-09-14 20:00:00,,0828.8,4.99,0.00,29.7,28.4,00.0,38.8,31.6,29.3,0000.1,0018.62,0009.29,0008.03
2021-09-14 20:01:00,,0828.7,5.00,0.00,29.8,28.7,00.0,38.8,31.7,29.0,-000.1,0018.56,0009.41,0008.12
2021-09-14 20:02:00,,0829.0,5.01,0.00,29.8,28.9,00.0,38.8,31.8,29.1,-000.4,0019.16,0009.48,0008.19
2021-09-14 20:03:00,,0829.3,4.99,0.00,29.9,29.0,00.0,38.9,31.8,29.0,-000.4,0019.49,0009.51,0008.27
2021-09-14 20:04:00,,0829.0,5.00,0.00,29.9,29.2,00.0,38.9,31.9,29.1,-000.2,0019.72,0009.58,0008.38
2021-09-14 20:05:00,,0828.8,5.01,0.00,30.0,29.2,00.0,38.9,31.9,29.7,0000.0,0019.76,0009.61,0008.41
2021-09-14 20:06:00,,0828.8,5.00,0.00,30.0,27.7,00.0,38.9,31.5,29.7,0000.1,0019.30,0009.61,0008.43
2021-09-14 20:07:00,,0828.9,4.99,0.00,29.8,26.2,00.0,38.9,31.1,30.1,0000.1,0019.11,0009.51,0008.37
2021-09-14 20:08:00,,0828.9,5.00,0.00,29.7,26.0,00.0,38.9,31.1,30.5,0000.1,0019.35,0009.45,0008.29
2021-09-14 20:09:00,,0829.0,5.00,0.00,29.6,26.4,00.0,38.8,31.2,30.5,0000.0,0019.87,0009.43,0008.29
2021-09-14 20:10:00,,0829.1,5.01,0.00,29.6,26.9,00.0,38.8,31.2,30.5,0000.1,0018.45,0009.38,0008.26
2021-09-14 20:11:00,,0829.0,4.99,0.00,29.6,27.3,00.0,38.7,31.3,30.6,-000.1,0018.70,0009.31,0008.22
2021-09-14 20:12:00,,0828.9,5.01,0.00,29.6,27.8,00.0,38.7,31.4,30.5,-000.2,0019.29,0009.30,0008.17
2021-09-14 20:13:00,,0829.0,5.00,0.00,29.7,28.1,00.0,38.7,31.5,30.8,0000.4,0018.76,0009.37,0008.16
2021-09-14 20:14:00,,0828.8,4.99,0.00,29.7,28.4,00.0,38.7,31.5,30.9,0000.4,0019.64,0009.45,0008.15
2021-09-14 20:15:00,,0828.7,5.01,0.00,29.7,28.6,00.0,38.8,31.6,30.5,0000.3,0020.42,0009.48,0008.15
2021-09-14 20:16:00,,0828.3,4.99,0.00,29.8,28.7,00.0,38.8,31.7,30.9,0000.0,0021.07,0009.58,0008.24
2021-09-14 20:17:00,,0828.3,5.01,0.00,29.8,28.9,00.0,38.8,31.7,31.0,0000.1,0022.02,0009.70,0008.33
2021-09-14 20:18:00,,0828.3,5.00,0.00,29.9,29.0,00.0,38.8,31.8,31.2,0000.1,0022.95,0009.91,0008.43
2021-09-14 20:19:00,,0828.3,5.00,0.00,29.9,29.1,00.0,38.9,31.9,32.5,0000.0,0023.13,0010.10,0008.56
2021-09-14 20:20:00,,0828.4,5.01,0.00,30.0,29.2,00.0,38.9,31.9,32.2,0000.0,0022.35,0010.17,0008.68
2021-09-14 20:21:00,,0828.4,4.99,0.00,30.0,28.5,00.0,38.9,31.7,33.0,-000.0,0022.14,0010.21,0008.75
2021-09-14 20:22:00,,0828.5,5.00,0.00,29.8,26.5,00.0,38.9,31.1,33.9,-000.1,0023.57,0010.37,0008.82
2021-09-14 20:23:00,,0828.5,5.00,0.00,29.7,25.7,00.0,38.9,30.9,37.1,0000.3,0024.55,0010.49,0008.92
2021-09-14 20:24:00,,0828.5,4.99,0.00,29.8,25.9,00.0,38.8,31.1,37.3,0000.2,0024.79,0010.54,0008.97
2021-09-14 20:25:00,,0828.9,5.01,0.00,30.0,26.4,00.0,38.8,31.3,34.1,0000.3,0023.92,0010.47,0008.96
2021-09-14 20:26:00,,0829.1,5.00,0.00,30.2,26.9,00.0,38.8,31.4,33.1,0000.3,0023.43,0010.41,0008.92
2021-09-14 20:27:00,,0828.6,5.00,0.00,30.4,27.4,00.0,38.8,31.5,32.9,0000.3,0022.68,0010.37,0008.87
2021-09-14 20:28:00,,0828.7,4.99,0.00,30.4,27.8,00.0,38.8,31.5,33.0,0000.5,0021.65,0010.32,0008.83
2021-09-14 20:29:00,,0828.6,5.01,0.00,30.5,28.1,00.0,38.9,31.6,32.5,0000.4,0021.39,0010.26,0008.80
2021-09-14 20:30:00,,0828.9,5.00,0.00,30.5,28.3,00.0,38.9,31.7,33.1,0000.6,0021.17,0010.18,0008.75
2021-09-14 20:31:00,,0829.0,4.99,0.00,30.5,28.6,00.0,39.0,31.7,32.0,0000.4,0021.24,0010.19,0008.72
2021-09-14 20:32:00,,0828.9,4.99,0.00,30.6,28.8,00.0,39.1,31.8,30.8,0000.6,0021.46,0010.21,0008.73
2021-09-14 20:33:00,,0828.7,5.00,0.00,30.6,28.9,00.0,39.1,31.9,30.4,0000.8,0020.10,0010.18,0008.78
2021-09-14 20:34:00,,0829.2,4.99,0.00,30.6,29.1,00.0,39.2,31.9,30.4,0000.6,0018.85,0010.12,0008.79
2021-09-14 20:35:00,,0829.2,5.00,0.00,30.7,29.2,00.0,39.2,32.0,31.5,0000.4,0018.45,0010.03,0008.79
2021-09-14 20:36:00,,0829.1,5.00,0.00,30.7,29.1,00.0,39.3,32.0,31.3,0000.3,0018.53,0010.08,0008.81
2021-09-14 20:37:00,,0828.9,5.00,0.00,30.6,27.6,00.0,39.3,31.6,31.1,0000.4,0018.89,0010.14,0008.84
2021-09-14 20:38:00,,0828.7,4.99,0.00,30.4,26.1,00.0,39.3,31.1,30.8,0000.5,0019.18,0010.12,0008.84
2021-09-14 20:39:00,,0828.5,5.02,0.00,30.3,25.9,00.0,39.3,31.1,30.5,0000.5,0019.17,0010.10,0008.82
2021-09-14 20:40:00,,0828.4,5.00,0.00,30.2,26.3,00.0,39.2,31.2,31.2,0000.5,0018.57,0010.03,0008.79
2021-09-14 20:41:00,,0828.4,5.01,0.00,30.1,26.8,00.0,39.2,31.3,32.4,0000.3,0018.96,0009.97,0008.75
2021-09-14 20:42:00,,0828.4,4.99,0.00,30.1,27.3,00.0,39.1,31.4,32.0,0000.3,0018.97,0009.91,0008.68
2021-09-14 20:43:00,,0828.4,5.00,0.00,30.1,27.7,00.0,39.1,31.5,31.6,0000.1,0018.78,0009.89,0008.64
2021-09-14 20:44:00,,0828.5,5.00,0.00,30.1,28.0,00.0,39.1,31.5,30.7,0000.1,0018.53,0009.89,0008.62
2021-09-14 20:45:00,,0828.5,5.00,0.00,30.2,28.3,00.0,39.1,31.6,31.2,-000.0,0018.73,0009.94,0008.62
2021-09-14 20:46:00,,0828.4,4.99,0.00,30.2,28.5,00.0,39.1,31.7,31.2,0000.1,0019.13,0010.01,0008.65
2021-09-14 20:47:00,,0828.4,5.01,0.00,30.2,28.7,00.0,39.1,31.8,31.0,0000.1,0018.73,0010.04,0008.70
2021-09-14 20:48:00,,0828.4,5.00,0.00,30.2,28.9,00.0,39.1,31.8,30.7,0000.1,0017.86,0010.08,0008.74
2021-09-14 20:49:00,,0828.3,5.01,0.00,30.3,29.0,00.0,39.2,31.9,31.0,0000.3,0017.52,0010.12,0008.79
2021-09-14 20:50:00,,0828.4,5.00,0.00,30.3,29.1,00.0,39.2,31.9,30.3,0000.4,0018.41,0010.18,0008.86
2021-09-14 20:51:00,,0828.4,4.99,0.00,30.3,29.2,00.0,39.2,32.0,30.5,0000.6,0018.81,0010.32,0008.96
2021-09-14 20:52:00,,0828.5,5.01,0.00,30.4,29.1,00.0,39.2,32.0,30.7,0000.5,0019.36,0010.40,0009.06
2021-09-14 20:53:00,,0828.5,5.00,0.00,30.3,27.6,00.0,39.2,31.6,30.2,0000.7,0019.26,0010.45,0009.17
2021-09-14 20:54:00,,0828.3,4.99,0.00,30.1,26.1,00.0,39.2,31.2,30.8,0000.8,0019.06,0010.49,0009.20
2021-09-14 20:55:00,,0828.2,5.00,0.00,30.0,25.9,00.0,39.2,31.1,31.6,0000.5,0019.34,0010.47,0009.17
2021-09-14 20:56:00,,0828.0,5.01,0.00,29.9,26.2,00.0,39.1,31.1,32.1,0000.8,0019.07,0010.38,0009.11
2021-09-14 20:57:00,,0827.8,5.00,0.00,29.9,26.7,00.0,39.0,31.2,31.9,0000.8,0018.45,0010.31,0009.06
2021-09-14 20:58:00,,0827.7,5.00,0.00,29.8,27.2,00.0,39.0,31.3,31.6,0000.9,0018.62,0010.27,0009.03
2021-09-14 20:59:00,,0827.7,4.98,0.00,29.9,27.6,00.0,39.0,31.4,31.8,0000.9,0019.33,0010.24,0009.04
